NI4CE-10 Weather Reports


time (UTC)temp
F
wind
direction
speed
knots
gust
knots
rain 1hr
in
rain 24hr
in
rain mn
in
humidity
%
barometer
mb
20260903013753 79 25 0.0 0.0 0.00 0.13 0.13 100 1016.0
20260903013618 79 25 0.0 0.0 0.00 0.13 0.13 100 1016.0
20260903013253 79 25 0.0 0.0 0.00 0.13 0.13 100 1016.0
20260903012753 79 25 0.0 0.0 0.00 0.13 0.13 100 1016.2
20260903012657 79 25 0.0 0.0 0.00 0.13 0.13 100 1016.3
20260903012253 79 25 0.0 0.0 0.00 0.13 0.13 100 1016.3
20260903012043 79 25 0.0 0.0 0.00 0.13 0.13 100 1016.3
20260903011753 79 25 0.0 0.0 0.00 0.13 0.13 100 1016.3
20260903011253 79 25 0.0 2.6 0.00 0.13 0.13 100 1016.4
20260903010753 79 348 2.6 2.6 0.00 0.13 0.13 100 1016.2
20260903010253 79 90 0.0 0.0 0.01 0.14 0.13 100 1016.1
20260903010040 79 90 0.0 0.0 0.01 0.14 0.13 100 1016.0
20260903005753 79 90 0.0 0.0 0.01 0.14 0.13 100 1016.0
20260903005253 79 90 0.0 0.0 0.01 0.14 0.13 100 1015.9
20260903004753 79 90 0.0 0.0 0.01 0.14 0.13 100 1015.7
20260903004253 79 90 0.0 0.0 0.01 0.14 0.13 100 1015.6
20260903004117 79 90 0.0 0.0 0.01 0.14 0.13 100 1015.6
20260903004044 79 90 0.0 0.0 0.01 0.14 0.13 100 1015.6
20260903003753 79 90 0.0 0.0 0.01 0.14 0.13 100 1015.6
20260903003454 79 90 0.0 0.0 0.01 0.14 0.13 100 1015.7
20260903003253 79 90 0.0 0.0 0.01 0.14 0.13 100 1015.7
20260903002753 79 90 0.0 0.0 0.01 0.14 0.13 100 1015.5
20260903002253 79 90 0.0 3.5 0.01 0.14 0.13 100 1015.1
20260903002122 79 81 1.7 3.5 0.02 0.14 0.13 100 1015.2
20260903001753 79 81 1.7 3.5 0.02 0.14 0.13 100 1015.2
20260903001253 79 15 0.0 0.0 0.02 0.14 0.13 100 1015.3
20260903001128 79 15 0.0 4.3 0.02 0.14 0.13 100 1015.2
20260903000754 79 15 0.0 4.3 0.02 0.14 0.13 100 1015.2
20260903000255 79 56 1.7 5.2 0.01 0.13 0.12 100 1015.2
20260903000039 79 46 2.6 5.2 0.01 0.13 0.12 100 1015.3
20260902235754 79 46 2.6 5.2 0.01 0.13 0.12 100 1015.3
20260902235254 79 8 0.0 5.2 0.01 0.13 0.12 100 1015.6
20260902234754 79 32 0.0 6.1 0.01 0.13 0.12 100 1015.8
20260902234523 79 47 5.2 5.2 0.01 0.13 0.12 100 1016.0
20260902234254 79 47 5.2 5.2 0.01 0.13 0.12 100 1016.0
20260902233754 79 37 1.7 5.2 0.01 0.13 0.12 100 1016.0
20260902233254 80 23 4.3 4.3 0.01 0.13 0.12 100 1016.0
20260902232754 79 14 3.5 5.2 0.01 0.13 0.12 100 1016.0
20260902232530 79 32 4.3 9.6 0.01 0.13 0.12 100 1016.1
20260902232254 79 32 4.3 9.6 0.01 0.13 0.12 100 1016.1
20260902231754 79 358 7.0 9.6 0.00 0.12 0.11 100 1016.2
20260902231254 80 358 4.3 10.4 0.00 0.12 0.11 100 1016.2
20260902231134 80 21 4.3 11.3 0.00 0.12 0.11 100 1016.3
20260902230754 80 21 4.3 11.3 0.00 0.12 0.11 100 1016.3
20260902230537 81 32 7.8 13.9 0.00 0.12 0.11 100 1016.1
20260902230254 81 32 7.8 13.9 0.00 0.12 0.11 100 1016.1
20260902225754 80 11 9.6 18.2 0.00 0.12 0.11 100 1016.1
20260902225536 81 358 7.0 16.5 0.00 0.12 0.11 100 1015.9
20260902225254 81 358 7.0 16.5 0.00 0.12 0.11 100 1015.9
20260902225024 82 9 6.1 17.4 0.00 0.12 0.11 100 1015.8
20260902224754 82 9 6.1 17.4 0.00 0.12 0.11 100 1015.8
20260902224254 83 343 5.2 19.1 0.00 0.12 0.11 100 1015.8
20260902223754 84 32 12.2 20.0 0.00 0.12 0.11 100 1015.6
20260902223254 84 1 4.3 9.6 0.00 0.12 0.11 100 1015.1
20260902223012 84 330 2.6 7.0 0.00 0.12 0.11 100 1015.0
20260902222754 84 330 2.6 7.0 0.00 0.12 0.11 100 1015.0
20260902222614 84 315 3.5 7.0 0.00 0.12 0.11 100 1015.1
20260902222254 84 315 3.5 7.0 0.00 0.12 0.11 100 1015.1
20260902222035 84 358 1.7 8.7 0.00 0.12 0.11 100 1015.3
20260902221754 84 358 1.7 8.7 0.00 0.12 0.11 100 1015.3
20260902221632 85 358 2.6 7.8 0.00 0.12 0.11 100 1015.2
20260902221254 85 358 2.6 7.8 0.00 0.12 0.11 100 1015.2
20260902221158 85 334 5.2 9.6 0.00 0.12 0.11 100 1015.1
20260902220754 85 334 5.2 9.6 0.00 0.12 0.11 100 1015.1
20260902220541 85 289 4.3 7.8 0.00 0.12 0.11 100 1014.9
20260902220254 85 289 4.3 7.8 0.00 0.12 0.11 100 1014.9
20260902220054 85 279 1.7 5.2 0.00 0.12 0.11 100 1014.9
20260902215754 85 279 1.7 5.2 0.00 0.12 0.11 100 1014.9
20260902215254 85 286 1.7 7.0 0.00 0.12 0.11 100 1014.7
20260902215123 85 303 0.0 5.2 0.00 0.12 0.11 100 1014.6
20260902214754 85 303 0.0 5.2 0.00 0.12 0.11 100 1014.6
20260902214609 85 337 2.6 5.2 0.00 0.12 0.11 100 1014.6
20260902214254 85 337 2.6 5.2 0.00 0.12 0.11 100 1014.6
20260902214050 85 292 0.9 2.6 0.00 0.12 0.11 100 1014.4
20260902213754 85 292 0.9 2.6 0.00 0.12 0.11 100 1014.4
20260902213254 85 296 0.0 2.6 0.00 0.12 0.11 100 1014.3
20260902212754 85 344 1.7 6.1 0.00 0.12 0.11 100 1014.4
20260902212257 86 281 2.6 6.1 0.00 0.12 0.11 100 1014.7
20260902212254 86 281 2.6 6.1 0.00 0.12 0.11 100 1014.7
20260902211754 86 302 0.0 6.1 0.00 0.12 0.11 100 1014.9
20260902211257 86 331 0.9 8.7 0.00 0.12 0.11 100 1014.8
20260902211254 86 331 0.9 8.7 0.00 0.12 0.11 100 1014.8
20260902211039 86 330 6.1 6.1 0.00 0.12 0.11 100 1014.6
20260902210754 86 330 6.1 6.1 0.00 0.12 0.11 100 1014.6
20260902210541 86 336 4.3 4.3 0.00 0.12 0.11 100 1014.5
20260902210254 86 336 4.3 4.3 0.00 0.12 0.11 100 1014.5
20260902210039 86 347 3.5 3.5 0.00 0.12 0.11 100 1014.4
20260902205754 86 347 3.5 3.5 0.00 0.12 0.11 100 1014.4
20260902205546 86 330 2.6 6.1 0.00 0.12 0.11 100 1014.5
20260902205254 86 330 2.6 6.1 0.00 0.12 0.11 100 1014.5
20260902205032 86 343 4.3 6.1 0.00 0.12 0.11 100 1014.8
20260902204754 86 343 4.3 6.1 0.00 0.12 0.11 100 1014.8
20260902204254 86 317 1.7 7.8 0.00 0.12 0.11 100 1014.8
20260902203754 86 329 2.6 6.1 0.00 0.12 0.11 100 1014.7
20260902203619 86 350 4.3 7.0 0.00 0.12 0.11 100 1014.7
20260902203254 86 350 4.3 7.0 0.00 0.12 0.11 100 1014.7
20260902203043 86 1 3.5 7.0 0.00 0.12 0.11 100 1014.7
20260902202754 86 1 3.5 7.0 0.00 0.12 0.11 100 1014.7
20260902202618 86 329 0.9 5.2 0.00 0.12 0.11 100 1014.7
20260902202254 86 329 0.9 5.2 0.00 0.12 0.11 100 1014.7
20260902202033 86 305 5.2 7.0 0.00 0.12 0.11 100 1014.8
20260902201754 86 305 5.2 7.0 0.00 0.12 0.11 100 1014.8
20260902201254 86 330 5.2 7.0 0.00 0.12 0.11 100 1014.9
20260902200754 86 336 1.7 5.2 0.00 0.12 0.11 100 1015.0
20260902200541 86 322 3.5 5.2 0.00 0.12 0.11 100 1015.1
20260902200255 86 322 3.5 5.2 0.00 0.12 0.11 100 1015.1
20260902200028 85 348 4.3 7.0 0.00 0.12 0.11 100 1015.2
20260902195754 85 348 4.3 7.0 0.00 0.12 0.11 100 1015.2
20260902195538 85 303 0.9 5.2 0.00 0.12 0.11 100 1015.2
20260902195254 85 303 0.9 5.2 0.00 0.12 0.11 100 1015.2
20260902194754 85 317 4.3 7.0 0.00 0.12 0.11 100 1015.4
20260902194255 85 309 3.5 6.1 0.00 0.12 0.11 100 1015.5
20260902194010 85 348 4.3 7.8 0.00 0.12 0.11 100 1015.5
20260902193755 85 348 4.3 7.8 0.00 0.12 0.11 100 1015.5
20260902193255 86 348 3.5 10.4 0.00 0.12 0.11 100 1015.7
20260902192755 88 358 6.1 8.7 0.00 0.12 0.11 100 1015.6
20260902192255 89 1 5.2 12.2 0.00 0.12 0.11 100 1015.6
20260902192012 90 5 10.4 10.4 0.00 0.12 0.11 100 1015.6
20260902191755 90 5 10.4 10.4 0.00 0.12 0.11 100 1015.6
20260902191255 91 37 7.0 9.6 0.00 0.12 0.11 100 1015.6
20260902191008 90 39 2.6 6.1 0.00 0.12 0.11 100 1015.6
20260902190755 90 39 2.6 6.1 0.00 0.12 0.11 100 1015.6
20260902190255 89 15 3.5 6.1 0.00 0.26 0.11 100 1015.6
20260902190007 89 68 2.6 5.2 0.00 0.26 0.11 100 1015.8
20260902185755 89 68 2.6 5.2 0.00 0.26 0.11 100 1015.8
20260902185255 89 54 3.5 4.3 0.00 0.26 0.11 100 1015.8
20260902185113 89 61 2.6 6.1 0.00 0.26 0.11 100 1015.9
20260902184755 89 61 2.6 6.1 0.00 0.26 0.11 100 1015.9
20260902184255 91 98 5.2 5.2 0.00 0.26 0.11 100 1016.0
20260902183950 92 334 3.5 7.0 0.00 0.26 0.11 100 1016.1
20260902183755 92 334 3.5 7.0 0.00 0.26 0.11 100 1016.1
20260902183255 91 358 3.5 7.0 0.00 0.26 0.11 100 1016.1
20260902182755 91 2 1.7 8.7 0.00 0.26 0.11 100 1016.2
20260902182255 92 355 6.1 6.1 0.00 0.26 0.11 100 1016.3
20260902182022 93 4 1.7 4.3 0.00 0.26 0.11 100 1016.3
20260902181755 93 4 1.7 4.3 0.00 0.26 0.11 100 1016.3
20260902181255 92 30 0.9 7.0 0.00 0.26 0.11 100 1016.3
20260902181133 96 357 6.1 7.0 0.00 0.26 0.11 100 1016.4
20260902180755 96 357 6.1 7.0 0.00 0.26 0.11 100 1016.4
20260902180255 97 99 0.9 7.0 0.00 0.26 0.11 100 1016.5
20260902175755 96 330 4.3 5.2 0.00 0.26 0.11 100 1016.6
20260902175255 94 47 0.9 5.2 0.00 0.26 0.11 100 1016.6
20260902174755 93 70 0.9 7.0 0.00 0.26 0.11 100 1016.7
20260902174255 96 340 6.1 6.1 0.00 0.26 0.11 100 1016.7
20260902174157 96 36 3.5 5.2 0.00 0.26 0.11 100 1016.7
20260902173755 96 36 3.5 5.2 0.00 0.26 0.11 100 1016.7
20260902173321 96 327 5.2 7.0 0.00 0.26 0.11 100 1016.8
20260902173255 96 351 3.5 7.0 0.00 0.26 0.11 100 1016.7
20260902172755 96 327 5.2 7.0 0.00 0.26 0.11 100 1016.8
20260902172255 96 101 2.6 5.2 0.00 0.26 0.11 100 1016.9
20260902172159 96 21 2.6 4.3 0.00 0.26 0.11 100 1017.0
20260902171755 96 21 2.6 4.3 0.00 0.26 0.11 100 1017.0
20260902171255 96 37 0.9 6.1 0.00 0.26 0.11 100 1017.1
20260902171124 94 9 1.7 6.1 0.00 0.26 0.11 100 1017.2
20260902170755 94 9 1.7 6.1 0.00 0.26 0.11 100 1017.2
20260902170255 90 26 5.2 7.0 0.00 0.26 0.11 100 1017.4
20260902170037 91 59 2.6 6.1 0.00 0.26 0.11 100 1017.5
20260902165755 91 59 2.6 6.1 0.00 0.26 0.11 100 1017.5
20260902165255 91 22 5.2 6.1 0.00 0.26 0.11 100 1017.5
20260902164755 95 50 3.5 7.8 0.00 0.26 0.11 100 1017.6
20260902164255 95 336 1.7 7.8 0.00 0.26 0.11 100 1017.7
20260902164012 90 2 5.2 7.8 0.01 0.26 0.11 100 1017.8
20260902163755 90 2 5.2 7.8 0.01 0.26 0.11 100 1017.8
20260902163255 87 2 2.6 7.0 0.02 0.26 0.11 100 1017.7
20260902163134 88 11 6.1 10.4 0.05 0.26 0.11 100 1017.7
20260902162755 88 11 6.1 10.4 0.05 0.26 0.11 100 1017.7
20260902162255 91 14 5.2 10.4 0.09 0.26 0.11 100 1017.7
20260902162126 93 355 7.0 11.3 0.10 0.26 0.11 100 1017.7
20260902161755 93 355 7.0 11.3 0.10 0.26 0.11 100 1017.7
20260902161255 92 7 6.1 8.7 0.10 0.26 0.11 100 1017.8
20260902161113 90 299 0.9 10.4 0.10 0.26 0.11 100 1017.9
20260902160755 90 299 0.9 10.4 0.10 0.26 0.11 100 1017.9
20260902160255 92 347 7.8 9.6 0.10 0.26 0.11 100 1018.0
20260902160111 88 358 4.3 7.8 0.10 0.26 0.11 100 1018.0
20260902155755 88 358 4.3 7.8 0.10 0.26 0.11 100 1018.0
20260902155255 87 1 2.6 7.8 0.10 0.26 0.11 100 1017.9
20260902154755 88 340 1.7 6.1 0.10 0.26 0.11 100 1018.0
20260902154256 91 15 4.3 5.2 0.10 0.26 0.11 100 1017.9
20260902154036 89 4 0.0 0.0 0.09 0.25 0.10 100 1018.0
20260902153756 89 4 0.0 0.0 0.09 0.25 0.10 100 1018.0
20260902153256 84 4 0.0 3.5 0.08 0.24 0.09 100 1018.1
20260902153126 84 70 1.7 7.8 0.05 0.21 0.06 100 1018.1
20260902152756 84 70 1.7 7.8 0.05 0.21 0.06 100 1018.1
20260902152256 87 0 3.5 7.8 0.00 0.16 0.01 100 1018.1
20260902151756 92 358 1.7 5.2 0.00 0.16 0.01 100 1018.2
20260902151256 91 19 2.6 2.6 0.00 0.16 0.01 100 1018.1
20260902150948 91 29 1.7 6.1 0.00 0.16 0.01 100 1018.1
20260902150756 91 29 1.7 6.1 0.00 0.16 0.01 100 1018.1
20260902150256 92 49 2.6 4.3 0.00 0.16 0.01 100 1018.0
20260902145756 91 85 2.6 4.3 0.00 0.16 0.01 100 1018.0
20260902145256 93 113 2.6 3.5 0.00 0.16 0.01 100 1018.0
20260902144756 93 12 0.0 2.6 0.00 0.16 0.01 100 1018.0
20260902144256 89 14 1.7 4.3 0.00 0.16 0.01 100 1018.0
20260902144007 91 54 4.3 6.1 0.00 0.16 0.01 100 1017.9
20260902143756 91 54 4.3 6.1 0.00 0.16 0.01 100 1017.9
20260902143256 95 4 0.0 3.5 0.00 0.16 0.01 100 1017.8
20260902142756 94 60 0.0 4.3 0.00 0.16 0.01 100 1017.8
20260902142623 89 78 1.7 5.2 0.00 0.16 0.01 100 1017.8
20260902142256 89 78 1.7 5.2 0.00 0.16 0.01 100 1017.8
20260902142011 95 106 3.5 5.2 0.00 0.16 0.01 100 1017.8
20260902141756 95 106 3.5 5.2 0.00 0.16 0.01 100 1017.8
20260902141256 95 25 0.9 5.2 0.00 0.16 0.01 100 1017.8
20260902141028 96 54 0.0 3.5 0.00 0.16 0.01 100 1017.8
20260902140758 96 54 0.0 3.5 0.00 0.16 0.01 100 1017.8
20260902140540 90 8 0.9 6.1 0.00 0.16 0.01 100 1017.9
20260902140256 90 8 0.9 6.1 0.00 0.16 0.01 100 1017.9
20260902135756 94 18 2.6 7.8 0.00 0.16 0.01 100 1017.9
20260902135536 101 73 0.0 5.2 0.00 0.16 0.01 100 1017.9
20260902135256 101 73 0.0 5.2 0.00 0.16 0.01 100 1017.9
20260902135141 101 358 3.5 6.1 0.00 0.16 0.01 100 1017.8
20260902134756 101 358 3.5 6.1 0.00 0.16 0.01 100 1017.8
20260902134256 99 23 0.0 2.6 0.00 0.16 0.01 100 1017.8
20260902134124 99 53 1.7 7.0 0.00 0.16 0.01 100 1017.9
20260902133756 99 53 1.7 7.0 0.00 0.16 0.01 100 1017.9
20260902133654 98 12 6.1 6.1 0.00 0.16 0.01 100 1017.9
20260902133256 98 12 6.1 6.1 0.00 0.16 0.01 100 1017.9
20260902133013 96 36 2.6 6.1 0.00 0.16 0.01 100 1017.9
20260902132756 96 36 2.6 6.1 0.00 0.16 0.01 100 1017.9
20260902132256 95 49 3.5 6.1 0.00 0.16 0.01 100 1017.8
20260902132002 93 63 0.0 6.1 0.00 0.16 0.01 100 1017.8
20260902131756 93 63 0.0 6.1 0.00 0.16 0.01 100 1017.8
20260902131256 93 46 3.5 7.0 0.00 0.16 0.01 100 1017.8
20260902130756 93 40 1.7 4.3 0.00 0.16 0.01 100 1017.8
20260902130256 91 85 1.7 6.1 0.00 0.16 0.01 100 1017.9
20260902125756 91 42 3.5 6.1 0.00 0.16 0.01 100 1017.8
20260902125256 90 23 4.3 6.1 0.00 0.16 0.01 100 1017.9
20260902125044 88 22 1.7 5.2 0.00 0.16 0.01 100 1017.9
20260902124756 88 22 1.7 5.2 0.00 0.16 0.01 100 1017.9
20260902124506 86 19 4.3 5.2 0.00 0.16 0.01 100 1017.8
20260902124256 86 19 4.3 5.2 0.00 0.16 0.01 100 1017.8
20260902123929 81 323 2.6 6.1 0.00 0.16 0.01 100 1017.7
20260902123756 81 323 2.6 6.1 0.00 0.16 0.01 100 1017.7
20260902123600 80 28 0.9 5.2 0.00 0.16 0.01 100 1017.7
20260902123256 80 28 0.9 5.2 0.00 0.16 0.01 100 1017.7
20260902122756 80 4 2.6 2.6 0.00 0.16 0.01 100 1017.6
20260902122256 80 49 0.0 3.5 0.00 0.16 0.01 100 1017.5
20260902121756 79 12 2.6 4.3 0.00 0.16 0.01 100 1017.5
20260902121256 78 23 3.5 5.2 0.00 0.16 0.01 100 1017.5
20260902120756 78 14 1.7 4.3 0.00 0.16 0.01 100 1017.5
20260902120535 78 358 1.7 3.5 0.00 0.16 0.01 100 1017.4
20260902120257 78 358 1.7 3.5 0.00 0.16 0.01 100 1017.4
20260902115756 77 358 1.7 1.7 0.00 0.16 0.01 100 1017.4
20260902115257 77 14 0.0 1.7 0.00 0.16 0.01 100 1017.3
20260902114757 77 0 0.0 0.0 0.00 0.16 0.01 100 1017.3
20260902114257 77 0 0.0 1.7 0.00 0.16 0.01 100 1017.3
20260902114054 77 11 0.0 1.7 0.00 0.16 0.01 100 1017.4
20260902113757 77 11 0.0 1.7 0.00 0.16 0.01 100 1017.4
20260902113609 76 22 0.0 0.0 0.00 0.16 0.01 100 1017.4
20260902113257 76 22 0.0 0.0 0.00 0.16 0.01 100 1017.4
20260902113016 76 22 0.0 0.0 0.00 0.16 0.01 100 1017.4
20260902112757 76 22 0.0 0.0 0.00 0.16 0.01 100 1017.4
20260902112535 76 22 0.0 0.0 0.00 0.16 0.01 100 1017.4
20260902112257 76 22 0.0 0.0 0.00 0.16 0.01 100 1017.4
20260902111757 76 22 0.0 0.0 0.00 0.16 0.01 100 1017.3
20260902111257 76 22 0.0 0.0 0.00 0.16 0.01 100 1017.4
20260902110757 76 22 0.0 0.0 0.00 0.16 0.01 100 1017.3
20260902110257 76 22 0.0 0.0 0.01 0.16 0.01 100 1017.2
20260902105757 76 22 0.0 0.0 0.01 0.16 0.01 100 1017.3
20260902105257 76 22 0.0 0.0 0.01 0.16 0.01 100 1017.2
20260902105025 76 22 0.0 0.0 0.01 0.16 0.01 100 1017.2
20260902104757 76 22 0.0 0.0 0.01 0.16 0.01 100 1017.2
20260902104257 76 22 0.0 0.0 0.01 0.16 0.01 100 1017.0
20260902103757 76 22 0.0 0.0 0.01 0.16 0.01 100 1017.0
20260902103257 76 22 0.0 0.0 0.01 0.16 0.01 100 1016.9
20260902103212 76 22 0.0 0.0 0.01 0.16 0.01 100 1016.9
20260902102757 76 22 0.0 0.0 0.01 0.16 0.01 100 1016.9
20260902102702 76 22 0.0 0.0 0.01 0.16 0.01 100 1016.9
20260902102257 76 22 0.0 0.0 0.01 0.16 0.01 100 1016.9
20260902101757 76 22 0.0 0.0 0.01 0.16 0.01 100 1016.8
20260902101525 76 22 0.0 0.0 0.01 0.16 0.01 100 1016.8
20260902101257 76 22 0.0 0.0 0.01 0.16 0.01 100 1016.8
20260902101116 76 22 0.0 0.0 0.01 0.16 0.01 100 1016.9
20260902100757 76 22 0.0 0.0 0.01 0.16 0.01 100 1016.9
20260902100450 76 22 0.0 0.0 0.00 0.15 0.00 100 1016.9
20260902100257 76 22 0.0 0.0 0.00 0.15 0.00 100 1016.9
20260902100009 76 22 0.0 0.0 0.00 0.15 0.00 100 1016.8
20260902095757 76 22 0.0 0.0 0.00 0.15 0.00 100 1016.8
20260902095528 76 22 0.0 0.0 0.00 0.15 0.00 100 1016.8
20260902095257 76 22 0.0 0.0 0.00 0.15 0.00 100 1016.8
20260902094757 76 22 0.0 0.0 0.00 0.15 0.00 100 1016.7
20260902094257 76 22 0.0 0.0 0.00 0.15 0.00 100 1016.6
20260902093757 76 22 0.0 0.0 0.00 0.15 0.00 100 1016.6
20260902093257 76 22 0.0 0.0 0.00 0.15 0.00 100 1016.5
20260902092757 77 22 0.0 0.0 0.00 0.15 0.00 100 1016.5
20260902092257 77 22 0.0 0.0 0.00 0.15 0.00 100 1016.5
20260902091757 77 22 0.0 0.0 0.00 0.15 0.00 100 1016.6
20260902091257 76 22 0.0 0.0 0.00 0.15 0.00 100 1016.6
20260902091115 77 22 0.0 0.0 0.00 0.15 0.00 100 1016.5
20260902090757 77 22 0.0 0.0 0.00 0.15 0.00 100 1016.5
20260902090412 77 22 0.0 0.0 0.00 0.15 0.00 100 1016.4
20260902090257 77 22 0.0 0.0 0.00 0.15 0.00 100 1016.4
20260902085757 77 22 0.0 0.0 0.00 0.15 0.00 100 1016.4
20260902085257 77 22 0.0 0.0 0.00 0.15 0.00 100 1016.3
20260902085037 77 22 0.0 0.0 0.00 0.15 0.00 100 1016.3
20260902084934 77 22 0.0 0.0 0.00 0.15 0.00 100 1016.3
20260902084757 77 22 0.0 0.0 0.00 0.15 0.00 100 1016.3
20260902084350 77 22 0.0 0.0 0.00 0.15 0.00 100 1016.3
20260902084257 77 22 0.0 0.0 0.00 0.15 0.00 100 1016.3
20260902083757 77 22 0.0 0.0 0.00 0.15 0.00 100 1016.3
20260902083451 77 22 0.0 0.0 0.00 0.15 0.00 100 1016.3
20260902083341 77 22 0.0 0.0 0.00 0.15 0.00 100 1016.3
20260902083257 77 22 0.0 0.0 0.00 0.15 0.00 100 1016.3
20260902082757 77 22 0.0 0.0 0.00 0.15 0.00 100 1016.3
20260902082257 77 22 0.0 0.0 0.00 0.15 0.00 100 1016.4
20260902082058 77 22 0.0 0.0 0.00 0.15 0.00 100 1016.4
20260902081757 77 22 0.0 0.0 0.00 0.15 0.00 100 1016.4
20260902081535 77 22 0.0 0.0 0.00 0.15 0.00 100 1016.4
20260902081257 77 22 0.0 0.0 0.00 0.15 0.00 100 1016.4
20260902080757 77 22 0.0 0.0 0.00 0.15 0.00 100 1016.3
20260902080511 77 22 0.0 2.6 0.00 0.15 0.00 100 1016.2
20260902080257 77 22 0.0 2.6 0.00 0.15 0.00 100 1016.2
20260902075758 77 5 0.0 0.0 0.00 0.15 0.00 100 1016.3
20260902075258 77 5 0.0 0.0 0.00 0.15 0.00 100 1016.3
20260902075040 77 5 0.0 0.0 0.00 0.15 0.00 100 1016.3
20260902074930 77 5 0.0 0.0 0.00 0.15 0.00 100 1016.3
20260902074758 77 5 0.0 0.0 0.00 0.15 0.00 100 1016.3
20260902074258 77 5 0.0 1.7 0.00 0.15 0.00 100 1016.3
20260902073758 77 16 0.0 0.0 0.00 0.15 0.00 100 1016.3
20260902073258 77 16 0.0 0.0 0.00 0.15 0.00 100 1016.3
20260902073017 77 16 0.0 0.0 0.00 0.15 0.00 100 1016.4
20260902072758 77 16 0.0 0.0 0.00 0.15 0.00 100 1016.4
20260902072258 77 16 0.0 0.0 0.00 0.15 0.00 100 1016.4
20260902072119 77 16 0.0 1.7 0.00 0.15 0.00 100 1016.4
20260902072041 77 16 0.0 1.7 0.00 0.15 0.00 100 1016.4
20260902071758 77 16 0.0 1.7 0.00 0.15 0.00 100 1016.4
20260902071258 77 1 0.0 0.0 0.00 0.15 0.00 100 1016.4
20260902070859 77 1 0.0 0.0 0.00 0.15 0.00 100 1016.4
20260902070758 77 1 0.0 0.0 0.00 0.15 0.00 100 1016.4
20260902070258 77 1 0.0 0.0 0.00 0.15 0.00 100 1016.4
20260902070103 78 1 0.0 0.0 0.00 0.15 0.00 100 1016.4
20260902065914 78 1 0.0 0.0 0.00 0.15 0.00 100 1016.4
20260902065758 78 1 0.0 0.0 0.00 0.15 0.00 100 1016.4
20260902065258 78 1 0.0 0.9 0.00 0.15 0.00 100 1016.5
20260902064758 77 15 0.0 2.6 0.00 0.15 0.00 100 1016.4
20260902064258 77 35 0.0 4.3 0.00 0.15 0.00 100 1016.4
20260902064124 78 8 1.7 3.5 0.00 0.15 0.00 100 1016.5
20260902063758 78 8 1.7 3.5 0.00 0.15 0.00 100 1016.5
20260902063258 78 21 0.0 0.0 0.00 0.15 0.00 100 1016.6
20260902062758 78 21 0.0 1.7 0.00 0.15 0.00 100 1016.6
20260902062623 78 16 0.0 0.0 0.00 0.15 0.00 100 1016.7
20260902062258 78 16 0.0 0.0 0.00 0.15 0.00 100 1016.7
20260902062122 78 16 0.0 0.0 0.00 0.15 0.00 100 1016.8
20260902061758 78 16 0.0 0.0 0.00 0.15 0.00 100 1016.8
20260902061620 77 16 0.0 0.0 0.00 0.15 0.00 100 1016.9
20260902061538 77 16 0.0 0.0 0.00 0.15 0.00 100 1016.9
20260902061258 77 16 0.0 0.0 0.00 0.15 0.00 100 1016.9
20260902061120 77 16 0.0 0.0 0.00 0.15 0.00 100 1016.9
20260902060758 77 16 0.0 0.0 0.00 0.15 0.00 100 1016.9
20260902060258 78 16 0.0 0.0 0.00 0.15 0.00 100 1016.9
20260902055758 78 16 0.0 0.0 0.00 0.15 0.00 100 1016.9
20260902055258 78 16 0.0 0.0 0.00 0.15 0.00 100 1017.0
20260902055101 78 16 0.0 0.0 0.00 0.15 0.00 100 1017.0
20260902054758 78 16 0.0 0.0 0.00 0.15 0.00 100 1017.0
20260902054445 78 16 0.0 0.0 0.00 0.15 0.00 100 1017.0
20260902054258 78 16 0.0 0.0 0.00 0.15 0.00 100 1017.1
20260902053758 78 16 0.0 0.0 0.00 0.15 0.00 100 1017.0
20260902053541 78 16 0.0 0.0 0.00 0.15 0.00 100 1017.0
20260902053258 78 16 0.0 0.0 0.00 0.15 0.00 100 1017.0
20260902053129 78 16 0.0 0.0 0.00 0.15 0.00 100 1017.1
20260902052758 78 16 0.0 0.0 0.00 0.15 0.00 100 1017.1
20260902052541 78 16 0.0 0.0 0.00 0.15 0.00 100 1017.1
20260902052258 78 16 0.0 0.0 0.00 0.15 0.00 100 1017.1
20260902051758 78 16 0.0 0.0 0.00 0.15 0.00 100 1017.1
20260902051258 78 16 0.0 0.0 0.00 0.15 0.00 100 1017.1
20260902051024 78 16 0.0 0.0 0.00 0.15 0.00 100 1017.2
20260902050758 78 16 0.0 0.0 0.00 0.15 0.00 100 1017.2
20260902050258 78 16 0.0 0.9 0.00 0.15 0.00 100 1017.3
20260902045758 78 355 0.0 0.0 0.00 0.15 0.00 100 1017.3
20260902045613 78 355 0.0 0.0 0.00 0.15 0.15 100 1017.4
20260902045258 78 355 0.0 0.0 0.00 0.15 0.15 100 1017.4
20260902045025 78 355 0.0 0.0 0.00 0.15 0.15 100 1017.5
20260902044758 78 355 0.0 0.0 0.00 0.15 0.15 100 1017.5
20260902044258 78 355 0.0 0.0 0.00 0.15 0.15 100 1017.4
20260902043758 78 355 0.0 0.9 0.00 0.15 0.15 100 1017.4
20260902043455 78 351 0.9 0.9 0.00 0.15 0.15 100 1017.4
20260902043258 78 351 0.9 0.9 0.00 0.15 0.15 100 1017.4
20260902043125 78 264 0.0 0.0 0.00 0.15 0.15 100 1017.4
20260902042758 78 264 0.0 0.0 0.00 0.15 0.15 100 1017.4
20260902042258 79 264 0.0 0.0 0.00 0.15 0.15 100 1017.5
20260902041940 79 264 0.0 0.0 0.00 0.15 0.15 100 1017.5
20260902041758 78 264 0.0 0.0 0.00 0.15 0.15 100 1017.4
20260902041519 79 264 0.0 0.0 0.00 0.15 0.15 100 1017.4
20260902041258 79 264 0.0 0.0 0.00 0.15 0.15 100 1017.4
20260902041038 79 264 0.0 0.0 0.00 0.15 0.15 100 1017.5
20260902040758 79 264 0.0 0.0 0.00 0.15 0.15 100 1017.5
20260902040259 79 264 0.0 0.0 0.00 0.15 0.15 100 1017.5
20260902040032 79 264 0.0 0.0 0.00 0.15 0.15 100 1017.6
20260902035759 79 264 0.0 0.0 0.00 0.15 0.15 100 1017.6
20260902035259 79 264 0.0 0.0 0.00 0.15 0.15 100 1017.6
20260902035037 79 264 0.0 0.0 0.00 0.15 0.15 100 1017.7
20260902034759 79 264 0.0 0.0 0.00 0.15 0.15 100 1017.7
20260902034259 79 264 0.0 0.0 0.00 0.15 0.15 100 1017.7
20260902033923 79 264 0.0 0.0 0.00 0.15 0.15 100 1017.8
20260902033759 79 264 0.0 0.0 0.00 0.15 0.15 100 1017.8
20260902033413 79 264 0.0 0.0 0.00 0.15 0.15 100 1017.9
20260902033259 79 264 0.0 0.0 0.00 0.15 0.15 100 1017.9
20260902032759 79 264 0.0 0.0 0.00 0.15 0.15 100 1017.9
20260902032259 79 264 0.0 0.0 0.00 0.15 0.15 100 1018.0
20260902032014 79 264 0.0 0.0 0.00 0.15 0.15 100 1018.1
20260902031759 79 264 0.0 0.0 0.00 0.15 0.15 100 1018.1
20260902031259 79 264 0.0 0.0 0.00 0.15 0.15 100 1018.2
20260902031129 79 264 0.0 0.0 0.00 0.15 0.15 100 1018.2
20260902030759 79 264 0.0 0.0 0.00 0.15 0.15 100 1018.2
20260902030259 79 264 0.0 0.0 0.00 0.15 0.15 100 1018.2
20260902030042 79 264 0.0 0.0 0.00 0.15 0.15 100 1018.2
20260902025759 79 264 0.0 0.0 0.00 0.15 0.15 100 1018.2
20260902025527 79 264 0.0 0.0 0.00 0.15 0.15 100 1018.2
20260902025259 79 264 0.0 0.0 0.00 0.15 0.15 100 1018.2
20260902025126 79 264 0.0 0.0 0.00 0.15 0.15 100 1018.2
20260902024759 79 264 0.0 0.0 0.00 0.15 0.15 100 1018.2
20260902024259 79 264 0.0 0.0 0.01 0.15 0.15 100 1018.2
20260902023759 79 264 0.0 0.0 0.01 0.15 0.15 100 1018.2
20260902023259 79 264 0.0 0.0 0.01 0.15 0.15 100 1018.2
20260902023131 79 264 0.0 0.0 0.01 0.15 0.15 100 1018.1
20260902022759 79 264 0.0 0.0 0.01 0.15 0.15 100 1018.1
20260902022259 79 264 0.0 0.0 0.01 0.15 0.15 100 1018.1
20260902022126 79 264 0.0 0.0 0.01 0.15 0.15 100 1018.2
20260902021759 79 264 0.0 0.0 0.01 0.15 0.15 100 1018.2
20260902021259 79 264 0.0 0.0 0.01 0.15 0.15 100 1018.1
20260902021136 79 264 0.0 0.0 0.01 0.15 0.15 100 1018.1
20260902020759 79 264 0.0 0.0 0.01 0.15 0.15 100 1018.1
20260902020259 79 264 0.0 0.0 0.01 0.15 0.15 100 1018.0
20260902015759 79 264 0.0 0.0 0.01 0.15 0.15 100 1018.0
20260902015306 79 264 0.0 0.0 0.01 0.15 0.15 100 1017.9
20260902015259 79 264 0.0 0.0 0.01 0.15 0.15 100 1017.9
20260902014759 79 264 0.0 0.0 0.01 0.15 0.15 100 1017.9
20260902014259 79 264 0.0 0.0 0.00 0.14 0.14 100 1017.8
20260902014117 79 264 0.0 0.0 0.00 0.14 0.14 100 1017.8